sat.trackr.live / text

‹ back to catalog

STARLINK-5067

NORAD 55653 · 2023-021AB

PAYLOAD ACTIVE UNKNOWN

§ Identity

Operator
Country
US
Launch date
2023-02-17
Launch site
AFWTR
Launch vehicle
Mass (kg)
RCS (m²)

Purposes: comms

External: N2YO · Heavens-Above · Gunter

§ Orbital elements

Epoch: 2026-05-24T23:36:44.915616Z

Period
96.11 min
Inclination
69.9996°
Eccentricity
0.0002690
Mean motion
14.98330510 rev/d
Perigee alt
570.2 km
Apogee alt
573.9 km
Semi-major
6,950.2 km
B*
-1.9163e-4
RAAN
351.9252°
Arg perigee
264.7525°
Mean anomaly
95.3328°
Rev number
18,022

§ Raw data

STARLINK-50671 55653U 23021AB  26144.98385319 -.00002379  00000+0 -19163-3 0  99902 55653  69.9996 351.9252 0002690 264.7525  95.3328 14.98330510180226

JSON: /api/v1/satellites/55653 · /tle

For live sub-satellite position, see the globe view (requires WebGL).

§ Visibility from observer

Set your observer location to see the next 7 days of passes ≥ 10°. The values pass through the URL so the page stays shareable.

No JS? Fill the form by hand. The geolocation button needs JavaScript.